Ashtabula, OH

3:32 PM EDT on March 24, 2017 (GMT -0400)
Ashtabula County

Weather History for KHZY - July, 2013

Change the Weather History Date:

Saturday, July 6, 2013

  Actual Average (KGKJ) Record (KGKJ)
Temperature  
Mean Temperature 75 °F -  
Max Temperature 84 °F 79 °F 93 °F (1988)
Min Temperature 66 °F 55 °F 43 °F (1951)
Cooling Degree Days 10    
Growing Degree Days 25 (Base 50)    
Moisture  
Dew Point 67 °F    
Average Humidity 78    
Maximum Humidity 90    
Minimum Humidity 55    
Precipitation  
Precipitation 0.28 in - - ()
Sea Level Pressure  
Sea Level Pressure 30.13 in    
Wind  
Wind Speed 4 mph (South)    
Max Wind Speed 20 mph    
Max Gust Speed 29 mph    
Visibility 8 miles    
Events Rain    
Averages and records for this station are not official NWS values.
T = Trace of Precipitation, MM = Missing Value Source: NWS Daily Summary

Daily Weather History Graph

Daily Weather History Graph

Search for Another Location

Airport or City:

Trip Planner

Search our weather history database for the weather conditions in past years. The results will help you decide how hot, cold, wet, or windy it might be!

Date:

Astronomy

Jul. 06, 2013 Rise Set
Actual Time 5:54 AM EDT 9:00 PM EDT
Civil Twilight 5:20 AM EDT 9:33 PM EDT
Nautical Twilight 4:37 AM EDT 10:17 PM EDT
Astronomical Twilight 3:46 AM EDT 11:08 PM EDT
Moon 4:40 AM EDT (7/6) 7:39 PM EDT (7/6)
Length of Visible Light 16h 12m
Length of Day
15h 05m
Waning Crescent, 2% of the Moon is Illuminated
Jul 6
Waning Crescent
Jul 8
New
Jul 15
First Quarter
Jul 22
Full
Jul 29
Last Quarter

Hourly Weather History & Observations

Time (EDT) Temp. Heat Index Dew Point Humidity Pressure Visibility Wind Dir Wind Speed Gust Speed Precip Events Conditions
12:53 AM 69.1 °F - 66.0 °F 90% 30.14 in 7.0 mi SSE 4.6 mph - 0.01 in   Clear
1:53 AM 66.9 °F - 64.0 °F 90% 30.14 in 4.0 mi Calm Calm - N/A   Clear
2:53 AM 69.1 °F - 64.9 °F 87% 30.14 in 7.0 mi South 3.5 mph - N/A   Clear
3:53 AM 68.0 °F - 64.9 °F 90% 30.16 in 6.0 mi South 3.5 mph - N/A   Clear
4:53 AM 68.0 °F - 64.9 °F 90% 30.15 in 5.0 mi South 3.5 mph - N/A   Clear
5:53 AM 68.0 °F - 64.9 °F 90% 30.15 in 6.0 mi South 3.5 mph - N/A   Clear
6:40 AM 68.0 °F - 64.4 °F 88% 30.17 in 4.0 mi SSE 3.5 mph - N/A   Scattered Clouds
6:53 AM 68.0 °F - 64.9 °F 90% 30.15 in 4.0 mi Calm Calm - N/A   Scattered Clouds
7:53 AM 70.0 °F - 66.9 °F 90% 30.16 in 5.0 mi South 4.6 mph - N/A   Clear
8:44 AM 71.6 °F - 68.0 °F 88% 30.18 in 8.0 mi Calm Calm - N/A   Partly Cloudy
8:53 AM 72.0 °F - 68.0 °F 87% 30.16 in 9.0 mi South 3.5 mph - N/A   Partly Cloudy
9:11 AM 71.6 °F - 68.0 °F 88% 30.18 in 10.0 mi SW 4.6 mph - N/A   Mostly Cloudy
9:53 AM 73.9 °F - 68.0 °F 82% 30.17 in 10.0 mi SW 5.8 mph - N/A   Scattered Clouds
10:03 AM 73.4 °F - 68.0 °F 83% 30.18 in 10.0 mi WSW 4.6 mph - N/A   Mostly Cloudy
10:51 AM 75.2 °F - 66.2 °F 73% 30.18 in 10.0 mi SSW 4.6 mph - N/A   Scattered Clouds
10:53 AM 75.9 °F - 66.9 °F 74% 30.16 in 10.0 mi South 6.9 mph - N/A   Mostly Cloudy
11:01 AM 75.2 °F - 66.2 °F 73% 30.18 in 10.0 mi South 6.9 mph - N/A   Scattered Clouds
11:36 AM 77.0 °F - 66.2 °F 69% 30.17 in 10.0 mi South 5.8 mph - N/A   Mostly Cloudy
11:53 AM 77.0 °F - 66.9 °F 71% 30.16 in 10.0 mi South 6.9 mph - N/A   Mostly Cloudy
12:24 PM 78.8 °F - 66.2 °F 65% 30.17 in 10.0 mi SSW 9.2 mph - N/A   Mostly Cloudy
12:35 PM 78.8 °F - 66.2 °F 65% 30.17 in 10.0 mi South 6.9 mph - N/A   Mostly Cloudy
12:53 PM 80.1 °F 82.3 °F 66.9 °F 64% 30.15 in 10.0 mi SW 5.8 mph - N/A   Mostly Cloudy
1:19 PM 80.6 °F 83.2 °F 68.0 °F 65% 30.15 in 10.0 mi SW 4.6 mph - N/A   Mostly Cloudy
1:53 PM 81.0 °F 83.3 °F 66.9 °F 62% 30.13 in 10.0 mi SW 5.8 mph - N/A   Mostly Cloudy
2:53 PM 82.0 °F 84.5 °F 66.9 °F 60% 30.11 in 10.0 mi South 5.8 mph - N/A   Mostly Cloudy
3:53 PM 82.9 °F 85.8 °F 68.0 °F 60% 30.09 in 10.0 mi SSE 5.8 mph - N/A   Clear
4:53 PM 84.0 °F 86.5 °F 66.9 °F 56% 30.07 in 10.0 mi SW 4.6 mph - N/A   Partly Cloudy
5:53 PM 84.0 °F 86.3 °F 66.0 °F 55% 30.05 in 10.0 mi South 3.5 mph - N/A   Clear
6:53 PM 82.9 °F 85.4 °F 66.9 °F 58% 30.03 in 10.0 mi SSE 5.8 mph - N/A   Partly Cloudy
7:25 PM 75.2 °F - 69.8 °F 83% 30.08 in 1.5 mi SSW 19.6 mph 28.8 mph 0.12 in Rain Heavy Rain
7:27 PM 73.4 °F - 69.8 °F 88% 30.07 in 0.8 mi South 15.0 mph 28.8 mph 0.23 in Rain Heavy Rain
7:36 PM 73.4 °F - 68.0 °F 83% 30.06 in 1.2 mi Calm Calm - 0.24 in Rain Light Rain
7:38 PM 73.4 °F - 68.0 °F 83% 30.06 in 4.0 mi Calm Calm - 0.24 in Rain Light Rain
7:53 PM 73.0 °F - 68.0 °F 84% 30.05 in 10.0 mi ESE 4.6 mph - 0.24 in   Mostly Cloudy
8:53 PM 73.0 °F - 70.0 °F 90% 30.04 in 10.0 mi ESE 4.6 mph - N/A   Partly Cloudy
9:53 PM 73.0 °F - 69.1 °F 87% 30.05 in 10.0 mi SE 5.8 mph - 0.01 in Rain Light Rain
10:53 PM 73.9 °F - 69.1 °F 85% 30.07 in 10.0 mi SSW 6.9 mph - 0.01 in   Overcast
11:53 PM 73.0 °F - 69.1 °F 87% 30.08 in 10.0 mi South 5.8 mph - 0.01 in   Mostly Cloudy